Weather History for Venice, Italy

Change the Weather History Date:

Thursday, June 13, 2013

  Actual Average Record
Temperature  
Mean Temperature 72 °F -  
Max Temperature 80 °F 79 °F 89 °F (2003)
Min Temperature 64 °F 62 °F 55 °F (2012)
Cooling Degree Days 7    
Growing Degree Days 22 (Base 50)    
Moisture  
Dew Point 59 °F    
Average Humidity 61    
Maximum Humidity 94    
Minimum Humidity 36    
Precipitation  
Precipitation 0.00 in 0.09 in - ()
Sea Level Pressure  
Sea Level Pressure 30.06 in    
Wind  
Wind Speed 4 mph ()    
Max Wind Speed 9 mph    
Max Gust Speed -    
Visibility 6.2 miles    
Events Rain    
Averages and records for this station are not official NWS values.
T = Trace of Precipitation, MM = Missing Value Source: Averaged Metar Reports

Daily Weather History Graph

Daily Weather History Graph

Search for Another Location

Airport:

Trip Planner

Search our weather history database for the weather conditions in past years. The results will help you decide how hot, cold, wet, or windy it might be!

Date:

Astronomy

Jun. 13, 2013 Rise Set
Actual Time 5:21 AM CEST 9:00 PM CEST
Civil Twilight 4:43 AM CEST 9:38 PM CEST
Nautical Twilight 3:53 AM CEST 10:28 PM CEST
Astronomical Twilight 2:45 AM CEST 11:36 PM CEST
Moon 9:52 AM CEST (6/13) 11:45 PM CEST (6/13)
Length of Visible Light 16h 54m
Length of Day
15h 38m
Waxing Crescent, 19% of the Moon is Illuminated
Jun 13
Waxing Crescent
Jun 16
First Quarter
Jun 23
Full
Jun 30
Last Quarter
Jul 8
New

Hourly Weather History & Observations

Time (CEST) Temp. Heat Index Dew Point Humidity Pressure Visibility Wind Dir Wind Speed Gust Speed Precip Events Conditions
12:20 AM 73.4 °F - 62.6 °F 69% 30.06 in 6.2 mi Variable 1.2 mph - N/A   Partly Cloudy
12:50 AM 69.8 °F - 62.6 °F 78% 30.06 in 6.2 mi Variable 3.5 mph - N/A   Partly Cloudy
1:20 AM 69.8 °F - 62.6 °F 78% 30.09 in 6.2 mi North 4.6 mph - N/A   Scattered Clouds
1:50 AM 71.6 °F - 64.4 °F 78% 30.09 in 6.2 mi Variable 3.5 mph - N/A Rain Light Rain
2:20 AM 69.8 °F - 64.4 °F 83% 30.09 in 6.2 mi Calm Calm - N/A   Mostly Cloudy
2:50 AM 71.6 °F - 62.6 °F 73% 30.09 in 6.2 mi Variable 2.3 mph - N/A   Scattered Clouds
3:20 AM 68.0 °F - 62.6 °F 83% 30.09 in 6.2 mi Variable 2.3 mph - N/A   Scattered Clouds
3:50 AM 69.8 °F - 64.4 °F 83% 30.09 in 6.2 mi Variable 2.3 mph - N/A   Scattered Clouds
4:20 AM 71.6 °F - 64.4 °F 78% 30.12 in 6.2 mi Variable 2.3 mph - N/A   Scattered Clouds
4:50 AM 69.8 °F - 62.6 °F 78% 30.09 in 6.2 mi Variable 3.5 mph - N/A   Scattered Clouds
5:20 AM 69.8 °F - 62.6 °F 78% 30.09 in 6.2 mi Variable 2.3 mph - N/A   Partly Cloudy
5:50 AM 64.4 °F - 59.0 °F 83% 30.09 in - Variable 1.2 mph - N/A   Clear
6:20 AM 64.4 °F - 60.8 °F 88% 30.09 in - Variable 1.2 mph - N/A   Clear
6:50 AM 64.4 °F - 62.6 °F 94% 30.12 in - Variable 1.2 mph - N/A   Clear
7:20 AM 66.2 °F - 62.6 °F 88% 30.12 in - North 4.6 mph - N/A   Clear
7:50 AM 66.2 °F - 60.8 °F 83% 30.12 in - Variable 3.5 mph - N/A   Clear
8:20 AM 69.8 °F - 62.6 °F 78% 30.12 in - North 4.6 mph - N/A   Clear
8:50 AM 71.6 °F - 62.6 °F 73% 30.12 in - Variable 3.5 mph - N/A   Clear
9:20 AM 71.6 °F - 62.6 °F 73% 30.12 in - Variable 3.5 mph - N/A   Clear
9:50 AM 75.2 °F - 62.6 °F 65% 30.12 in - Variable 1.2 mph - N/A   Clear
10:20 AM 75.2 °F - 59.0 °F 57% 30.09 in - Variable 1.2 mph - N/A   Clear
10:50 AM 77.0 °F - 60.8 °F 57% 30.12 in - Variable 3.5 mph - N/A   Clear
11:20 AM 77.0 °F - 57.2 °F 50% 30.09 in - SE 4.6 mph - N/A   Clear
11:50 AM 77.0 °F - 50.0 °F 39% 30.09 in - SE 4.6 mph - N/A   Clear
12:20 PM 77.0 °F - 51.8 °F 41% 30.09 in - SSE 5.8 mph - N/A   Clear
12:50 PM 78.8 °F - 55.4 °F 44% 30.09 in - SSE 6.9 mph - N/A   Clear
1:20 PM 78.8 °F - 55.4 °F 44% 30.06 in - South 6.9 mph - N/A   Clear
1:50 PM 78.8 °F - 51.8 °F 39% 30.06 in - South 8.1 mph - N/A   Clear
2:20 PM 78.8 °F - 51.8 °F 39% 30.06 in - South 6.9 mph - N/A   Clear
2:50 PM 78.8 °F - 51.8 °F 39% 30.06 in - SE 9.2 mph - N/A   Clear
3:20 PM 78.8 °F - 50.0 °F 36% 30.04 in - SSE 9.2 mph - N/A   Clear
3:50 PM 78.8 °F - 53.6 °F 42% 30.04 in - SSE 9.2 mph - N/A   Clear
4:20 PM 80.6 °F 80.3 °F 53.6 °F 39% 30.04 in - SSE 9.2 mph - N/A   Clear
4:50 PM 80.6 °F 80.8 °F 57.2 °F 45% 30.04 in - SSE 8.1 mph - N/A   Clear
5:20 PM 78.8 °F - 53.6 °F 42% 30.01 in - SSE 8.1 mph - N/A   Clear
5:50 PM 80.6 °F 80.5 °F 55.4 °F 42% 30.01 in - SSE 6.9 mph - N/A   Clear
6:20 PM 78.8 °F - 55.4 °F 44% 30.01 in - SSE 5.8 mph - N/A   Clear
6:50 PM 78.8 °F - 55.4 °F 44% 30.01 in - SSE 4.6 mph - N/A   Clear
7:20 PM 78.8 °F - 55.4 °F 44% 30.01 in - SSE 4.6 mph - N/A   Clear
7:50 PM 78.8 °F - 55.4 °F 44% 30.01 in - SSE 4.6 mph - N/A   Clear
8:20 PM 78.8 °F - 55.4 °F 44% 30.01 in - SSE 4.6 mph - N/A   Clear
8:50 PM 75.2 °F - 57.2 °F 53% 29.98 in - South 4.6 mph - N/A   Clear
9:20 PM 75.2 °F - 57.2 °F 53% 30.01 in - South 4.6 mph - N/A   Clear
9:50 PM 75.2 °F - 57.2 °F 53% 30.01 in - SSW 4.6 mph - N/A   Clear
10:20 PM 75.2 °F - 59.0 °F 57% 30.01 in - SSW 6.9 mph - N/A   Clear
10:50 PM 73.4 °F - 59.0 °F 61% 30.01 in - SSW 6.9 mph - N/A   Clear
11:20 PM 73.4 °F - 60.8 °F 65% 30.01 in - SSW 6.9 mph - N/A   Clear
11:50 PM 73.4 °F - 62.6 °F 69% 30.01 in - SSW 6.9 mph - N/A   Clear